THORAD AGENA D DEB, 4654

Orbit data source: Space-Track

THORAD AGENA D DEB, 4654 is space debris in SSO originally from a launch on Wed, 08 Apr 1970 UTC launched from the Air Force Western Test Range (AFWTR). Debris objects in space refer to the collection of defunct objects orbiting the Earth. Examples of debris include non-operational satellites, rocket bodies, and fragments generated from explosions, collisions, or faulty payload assembly.

Loading next visibility...
Identifier
4654, 1970-025AN
Orbit
SSO
Country
Flag of USUS
Related business
Manufacturer
Unknown
Mission
Spacecraft
Bus & Motor
Unknown
Mass
Unknown
Launch date (UTC)
1970-04-08 (56 years ago)
Launch vehicle
Unknown
Launch site
Air Force Western Test Range (AFWTR)
Object type
Payload
Rocket body
Debris
Shape & HBR
Unknown shape, 0.1 m
Radar Cross Section
Small (<0.1 m²)

Expand to show TLE details & history
Last TLE update: 12 hours ago

TLE from 12 hours ago
0 THORAD AGENA D DEB
1 04654U 70025AN  26126.97677758  .00002266  00000-0  11591-2 0  9991
2 04654 100.0311 294.7807 0027709 182.4406 177.6633 14.16584101834104
Epoch: 2026-05-06T23:26Z
TLE epoch observation values (Epoch: 2026-05-06T23:26:33.582Z)
Latitude
-0.00006°
Longitude
78.31125°
Altitude
859.772 km
Speed
7.412 km/s
True Right ascension
19h 39m 07s
True Declination
0° 00' 00"
Sunlit
Object was in daylight at epoch
Visualization orbit readout
Latitude
Unknown
Longitude
Unknown
Altitude
Unknown
Speed
Unknown
Apparent Right ascension
Unknown
Apparent Declination
Unknown
Sunlit
N/A
Visualization observer readout
Local Sidereal Time
19:43:37
Azimuth
Unknown
Elevation
Unknown
Doppler factor
Unknown
Orbital elements
Apogee altitude
854.144 km
Perigee altitude
814.175 km
Semi-major axis
7,212.296 km
Eccentricity
0.00277
Inclination
100.0311°
RAAN
294.7807°
Arg. of periapsis
182.4406°
True anomaly
177.6762°
Mean anomaly
177.6633°
Eccentric anomaly
177.66976°
Mean motion
3.5435 °/min
Orbital period
101.59 mins
BSTAR
0.0011591

Documentation

Showing up to 5 results
|